Regional Weather Roundup
Issued by NWS

Home | Current Version | Previous Version | Text Only | Print | Product List | Glossary Off
Versions: 1 2 3 4 5 6 7 8 9 10 11 12 13 14 15 16 17 18 19 20 21 22 23 24 25 26 27 28 29 30 31 32 33 34 35 36 37 38 39 40 41 42 43 44 45 46 47 48 49 50

000
ASUS43 KBIS 220810
RWRND
NORTH DAKOTA REGIONAL WEATHER ROUNDUP
NATIONAL WEATHER SERVICE EASTERN NORTH DAKOTA/GRAND FORKS ND
200 AM CST THU FEB 22 2018

  NOTE: "FAIR" INDICATES FEW OR NO CLOUDS BELOW 12,000 FEET WITH NO
  SIGNIFICANT WEATHER AND/OR OBSTRUCTIONS TO VISIBILITY.

NDZ001>003-009>011-017-220900-
...NORTHWEST NORTH DAKOTA...

CITY           SKY/WX    TMP DP  RH WIND       PRES   REMARKS
WILLISTON      FAIR      -1  -9  68 SW5       30.24S WCI -11
MINOT          FAIR      -2  -7  79 SE5       30.30F WCI -12
MINOT AFB      FAIR      -4 -10  77 S8        30.28F WCI -19
$$

NDZ018>021-031>035-040>046-220900-
...SOUTHWEST NORTH DAKOTA...

CITY           SKY/WX    TMP DP  RH WIND       PRES   REMARKS
BISMARCK       FAIR      -6 -10  83 E5        30.36S WCI -17
DICKINSON      FAIR      -5 -12  72 S7        30.18F WCI -19
GARRISON         N/A     -4  -9  79 SE5       30.30S WCI -15
HETTINGER      FAIR     -14 -19  79 NW3       30.22S
$$

NDZ004>008-012>016-024-026-027-054-220900-
...NORTHEAST NORTH DAKOTA...

CITY           SKY/WX    TMP DP  RH WIND       PRES   REMARKS
GRAND FORKS    FAIR      -3  -7  82 SE9       30.51S WCI -19
GRAND FORKS AF FAIR      -4  -9  79 S7        30.49F WCI -18
DEVILS LAKE    FAIR      -7 -11  83 SE9       30.40F WCI -24
$$

NDZ022-023-025-028>030-036>039-047>053-220900-
...SOUTHEAST NORTH DAKOTA...

CITY           SKY/WX    TMP DP  RH WIND       PRES   REMARKS
JAMESTOWN      FAIR       0  -4  83 SE12      30.39F WCI -17
FARGO          FAIR       2  -4  76 SE8       30.53S WCI -12
WAHPETON       FAIR       0  -8  71 SE8       30.54R WCI -15
$$




USA.gov is the U.S. government's official web portal to all federal, state and local government web resources and services.